Location: *
(31.2983°S, 151.4094°E)
Time: 20:51:24
(UTC+00:00)

NOAA 6 - Pass Details

Date: 25 August 2019
Orbit: 773 x 786 km, 98.6° (Epoch: 14 October)

Event Time Altitude Azimuth Distance (km) Brightness Sun altitude
Rises 18:41:58 0° 12° (NNE) 3,260 7.4 -21.4°
Reaches altitude 10° 18:44:16 10° 11° (N) 2,341 6.6 -20.9°
Maximum altitude 18:49:27 82° 283° (WNW) 804 3.9 -19.8°
Drops below altitude 10° 18:54:42 10° 195° (SSW) 2,373 6.4 -18.6°
Sets 18:57:03 0° 193° (SSW) 3,309 7.1 -18.1°
